This is the latest recevied weather packets stored in our database for station/object KE8RXN. If no packets are shown the sender has not sent any weather packets the latest 10 day(s).
| Time | Temp. | Humidity | Pressure | Rain* | Wind** | Luminosity | Snow |
|---|---|---|---|---|---|---|---|
| 1778219442 | 2.78° C | 86% | 1015.3 hPa | 0 mm | - | 0 W/m² | - |
| 1778219138 | 2.78° C | 85% | 1015.4 hPa | 0 mm | - | 0 W/m² | - |
| 1778218836 | 2.78° C | 85% | 1015.5 hPa | 0 mm | - | 0 W/m² | - |
| 1778218532 | 2.78° C | 85% | 1015.3 hPa | 0 mm | - | 0 W/m² | - |
| 1778218231 | 2.78° C | 85% | 1015.5 hPa | 0 mm | - | 0 W/m² | - |
| 1778217928 | 2.78° C | 84% | 1015.6 hPa | 0 mm | - | 0 W/m² | - |
| 1778217624 | 3.33° C | 84% | 1015.7 hPa | 0 mm | - | 0 W/m² | - |
| 1778217321 | 3.33° C | 84% | 1015.8 hPa | 0 mm | - | 0 W/m² | - |
| 1778217016 | 3.33° C | 83% | 1016 hPa | 0 mm | - | 0 W/m² | - |
| 1778216713 | 3.33° C | 83% | 1016 hPa | 0 mm | - | 0 W/m² | - |
| 1778216410 | 3.89° C | 82% | 1015.8 hPa | 0 mm | - | 0 W/m² | - |
| 1778216106 | 3.89° C | 81% | 1015.8 hPa | 0 mm | - | 0 W/m² | - |
| 1778215804 | 3.89° C | 80% | 1015.7 hPa | 0 mm | - | 0 W/m² | - |
| 1778215501 | 3.89° C | 79% | 1015.6 hPa | 0 mm | - | 0 W/m² | - |
| 1778215196 | 3.89° C | 78% | 1015.4 hPa | 0 mm | - | 0 W/m² | - |
| 1778214894 | 4.44° C | 77% | 1015.4 hPa | 0 mm | - | 0 W/m² | - |
| 1778214590 | 5° C | 76% | 1015.5 hPa | 0 mm | - | 0 W/m² | - |
| 1778214288 | 5° C | 75% | 1015.2 hPa | 0 mm | - | 0 W/m² | - |
| 1778213984 | 5.56° C | 74% | 1015.5 hPa | 0 mm | - | 0 W/m² | - |
| 1778213681 | 5.56° C | 71% | 1015.2 hPa | 0 mm | - | 0 W/m² | - |
| 1778213378 | 6.11° C | 70% | 1015.3 hPa | 0 mm | - | 0 W/m² | - |
| 1778213075 | 5.56° C | 71% | 1015.3 hPa | 0 mm | - | 0 W/m² | - |
| 1778212773 | 5.56° C | 70% | 1015.2 hPa | 0 mm | - | 0 W/m² | - |
| 1778212469 | 5.56° C | 72% | 1015.3 hPa | 0 mm | - | 0 W/m² | - |
| 1778212166 | 5.56° C | 71% | 1015.2 hPa | 0 mm | - | 0 W/m² | - |
* Rain latest hour (hover to see other rain measurements)
** Current wind speed in m/s (hover to see current wind gust speed)